| time (UTC) | temp F | wind direction | speed knots | gust knots | rain 1hr in | rain 24hr in | rain mn in | humidity % | barometer mb |
| 20260906225314 | 75 | 340 | 6.1 | 7.8 | 0.00 | 0.00 | 0.00 | 26 | 1023.7 |
| 20260906224813 | 75 | 332 | 4.3 | 6.1 | 0.00 | 0.00 | 0.00 | 26 | 1023.9 |
| 20260906224314 | 75 | 5 | 2.6 | 3.5 | 0.00 | 0.00 | 0.00 | 26 | 1023.9 |
| 20260906223813 | 76 | 326 | 5.2 | 7.0 | 0.00 | 0.00 | 0.00 | 26 | 1023.9 |
| 20260906223312 | 76 | 348 | 6.1 | 8.7 | 0.00 | 0.00 | 0.00 | 26 | 1023.7 |
| 20260906222813 | 76 | 351 | 4.3 | 7.0 | 0.00 | 0.00 | 0.00 | 26 | 1023.7 |
| 20260906222313 | 76 | 350 | 3.5 | 4.3 | 0.00 | 0.00 | 0.00 | 26 | 1023.7 |
| 20260906221813 | 77 | 349 | 3.5 | 5.2 | 0.00 | 0.00 | 0.00 | 25 | 1023.7 |
| 20260906221313 | 77 | 341 | 3.5 | 5.2 | 0.00 | 0.00 | 0.00 | 25 | 1023.7 |
| 20260906220823 | 77 | 345 | 3.5 | 5.2 | 0.00 | 0.00 | 0.00 | 25 | 1023.7 |
| 20260906220313 | 76 | 352 | 4.3 | 7.0 | 0.00 | 0.00 | 0.00 | 25 | 1023.9 |
| 20260906215814 | 76 | 346 | 2.6 | 5.2 | 0.00 | 0.00 | 0.00 | 25 | 1023.9 |
| 20260906215313 | 76 | 332 | 4.3 | 6.1 | 0.00 | 0.00 | 0.00 | 25 | 1024.0 |
| 20260906214813 | 76 | 339 | 7.0 | 7.8 | 0.00 | 0.00 | 0.00 | 25 | 1024.0 |
| 20260906214313 | 76 | 358 | 1.7 | 3.5 | 0.00 | 0.00 | 0.00 | 25 | 1024.1 |
| 20260906213814 | 77 | 8 | 3.5 | 6.1 | 0.00 | 0.00 | 0.00 | 25 | 1024.1 |
| 20260906213313 | 77 | 308 | 2.6 | 3.5 | 0.00 | 0.00 | 0.00 | 25 | 1024.2 |
| 20260906212813 | 77 | 307 | 5.2 | 6.1 | 0.00 | 0.00 | 0.00 | 24 | 1024.2 |
| 20260906212313 | 78 | 2 | 3.5 | 5.2 | 0.00 | 0.00 | 0.00 | 24 | 1024.4 |
| 20260906211813 | 78 | 338 | 2.6 | 5.2 | 0.00 | 0.00 | 0.00 | 23 | 1024.4 |
| 20260906211313 | 78 | 337 | 4.3 | 5.2 | 0.00 | 0.00 | 0.00 | 23 | 1024.4 |
| 20260906210813 | 77 | 343 | 3.5 | 7.0 | 0.00 | 0.00 | 0.00 | 25 | 1024.4 |
| 20260906210313 | 76 | 337 | 4.3 | 5.2 | 0.00 | 0.00 | 0.00 | 24 | 1024.4 |
| 20260906205813 | 76 | 354 | 3.5 | 5.2 | 0.00 | 0.00 | 0.00 | 25 | 1024.5 |
| 20260906205313 | 76 | 188 | 0.9 | 3.5 | 0.00 | 0.00 | 0.00 | 25 | 1024.8 |
| 20260906204813 | 76 | 326 | 3.5 | 4.3 | 0.00 | 0.00 | 0.00 | 25 | 1024.8 |
| 20260906204314 | 76 | 336 | 5.2 | 7.8 | 0.00 | 0.00 | 0.00 | 25 | 1024.8 |
| 20260906203813 | 76 | 350 | 3.5 | 5.2 | 0.00 | 0.00 | 0.00 | 25 | 1024.8 |
| 20260906203313 | 76 | 352 | 7.0 | 8.7 | 0.00 | 0.00 | 0.00 | 25 | 1024.9 |
| 20260906202813 | 75 | 348 | 5.2 | 7.8 | 0.00 | 0.00 | 0.00 | 25 | 1024.9 |
| 20260906202316 | 75 | 343 | 4.3 | 6.1 | 0.00 | 0.00 | 0.00 | 25 | 1025.1 |
| 20260906201813 | 75 | 352 | 7.8 | 9.6 | 0.00 | 0.00 | 0.00 | 24 | 1025.0 |
| 20260906201313 | 75 | 329 | 4.3 | 7.0 | 0.00 | 0.00 | 0.00 | 24 | 1025.1 |
| 20260906200814 | 74 | 338 | 5.2 | 8.7 | 0.00 | 0.00 | 0.00 | 25 | 1025.3 |
| 20260906200313 | 75 | 328 | 7.0 | 7.8 | 0.00 | 0.00 | 0.00 | 25 | 1025.3 |
| 20260906195813 | 75 | 340 | 5.2 | 7.0 | 0.00 | 0.00 | 0.00 | 25 | 1025.3 |
| 20260906195313 | 75 | 4 | 2.6 | 4.3 | 0.00 | 0.00 | 0.00 | 23 | 1025.3 |
| 20260906194813 | 75 | 34 | 1.7 | 2.6 | 0.00 | 0.00 | 0.00 | 25 | 1025.3 |
| 20260906194313 | 74 | 335 | 6.1 | 7.8 | 0.00 | 0.00 | 0.00 | 25 | 1025.4 |
| 20260906193813 | 75 | 2 | 5.2 | 7.8 | 0.00 | 0.00 | 0.00 | 24 | 1025.5 |
| 20260906193313 | 77 | 23 | 4.3 | 6.1 | 0.00 | 0.00 | 0.00 | 23 | 1025.5 |
| 20260906192813 | 77 | 359 | 5.2 | 9.6 | 0.00 | 0.00 | 0.00 | 24 | 1025.5 |
| 20260906192313 | 76 | 337 | 3.5 | 7.0 | 0.00 | 0.00 | 0.00 | 24 | 1025.4 |
| 20260906191813 | 77 | 336 | 6.1 | 9.6 | 0.00 | 0.00 | 0.00 | 24 | 1025.5 |
| 20260906191313 | 77 | 360 | 7.0 | 8.7 | 0.00 | 0.00 | 0.00 | 24 | 1025.4 |
| 20260906190813 | 77 | 337 | 4.3 | 9.6 | 0.00 | 0.00 | 0.00 | 23 | 1025.5 |
| 20260906190313 | 77 | 329 | 4.3 | 7.0 | 0.00 | 0.00 | 0.00 | 24 | 1025.5 |
| 20260906185813 | 77 | 333 | 7.0 | 9.6 | 0.00 | 0.00 | 0.00 | 22 | 1025.8 |
| 20260906185313 | 76 | 87 | 3.5 | 6.1 | 0.00 | 0.00 | 0.00 | 24 | 1025.8 |
| 20260906184814 | 75 | 334 | 1.7 | 5.2 | 0.00 | 0.00 | 0.00 | 25 | 1025.8 |
| 20260906184313 | 76 | 13 | 2.6 | 3.5 | 0.00 | 0.00 | 0.00 | 25 | 1025.9 |
| 20260906183814 | 76 | 43 | 3.5 | 6.1 | 0.00 | 0.00 | 0.00 | 24 | 1026.0 |
| 20260906183313 | 76 | 351 | 5.2 | 7.0 | 0.00 | 0.00 | 0.00 | 25 | 1026.1 |
| 20260906182813 | 76 | 339 | 4.3 | 6.1 | 0.00 | 0.00 | 0.00 | 23 | 1026.1 |
| 20260906182321 | 76 | 349 | 5.2 | 7.0 | 0.00 | 0.00 | 0.00 | 24 | 1026.3 |
| 20260906181814 | 76 | 357 | 3.5 | 6.1 | 0.00 | 0.00 | 0.00 | 25 | 1026.4 |
| 20260906181313 | 75 | 345 | 2.6 | 4.3 | 0.00 | 0.00 | 0.00 | 25 | 1026.4 |
| 20260906180814 | 74 | 333 | 6.1 | 7.0 | 0.00 | 0.00 | 0.00 | 24 | 1026.5 |
| 20260906180313 | 75 | 351 | 4.3 | 7.0 | 0.00 | 0.00 | 0.00 | 24 | 1026.6 |
| 20260906175814 | 75 | 32 | 3.5 | 5.2 | 0.00 | 0.00 | 0.00 | 24 | 1026.6 |
| 20260906175314 | 75 | 21 | 3.5 | 7.0 | 0.00 | 0.00 | 0.00 | 24 | 1026.8 |
| 20260906174813 | 75 | 32 | 2.6 | 5.2 | 0.00 | 0.00 | 0.00 | 27 | 1026.9 |
| 20260906174313 | 74 | 114 | 4.3 | 6.1 | 0.00 | 0.00 | 0.00 | 26 | 1026.9 |
| 20260906173813 | 73 | 134 | 3.5 | 6.1 | 0.00 | 0.00 | 0.00 | 24 | 1026.9 |
| 20260906173313 | 73 | 159 | 1.7 | 2.6 | 0.00 | 0.00 | 0.00 | 26 | 1027.0 |
| 20260906172813 | 73 | 125 | 5.2 | 7.0 | 0.00 | 0.00 | 0.00 | 29 | 1027.1 |
| 20260906172318 | 72 | 97 | 3.5 | 6.1 | 0.00 | 0.00 | 0.00 | 31 | 1027.1 |
| 20260906171813 | 71 | 107 | 5.2 | 7.8 | 0.00 | 0.00 | 0.00 | 32 | 1027.3 |
| 20260906171315 | 71 | 131 | 4.3 | 7.0 | 0.00 | 0.00 | 0.00 | 32 | 1027.3 |
| 20260906170813 | 71 | 113 | 3.5 | 6.1 | 0.00 | 0.00 | 0.00 | 32 | 1027.3 |
| 20260906170316 | 71 | 106 | 4.3 | 6.1 | 0.00 | 0.00 | 0.00 | 32 | 1027.3 |
| 20260906165814 | 70 | 137 | 3.5 | 6.1 | 0.00 | 0.00 | 0.00 | 32 | 1027.4 |
| 20260906165313 | 70 | 133 | 3.5 | 6.1 | 0.00 | 0.00 | 0.00 | 32 | 1027.4 |
| 20260906164814 | 69 | 105 | 3.5 | 6.1 | 0.00 | 0.00 | 0.00 | 32 | 1027.4 |
| 20260906164313 | 69 | 123 | 3.5 | 5.2 | 0.00 | 0.00 | 0.00 | 32 | 1027.5 |
| 20260906163814 | 69 | 198 | 3.5 | 4.3 | 0.00 | 0.00 | 0.00 | 33 | 1027.4 |
| 20260906163313 | 69 | 140 | 3.5 | 5.2 | 0.00 | 0.00 | 0.00 | 34 | 1027.4 |
| 20260906162813 | 68 | 123 | 3.5 | 7.8 | 0.00 | 0.00 | 0.00 | 35 | 1027.4 |
| 20260906162313 | 67 | 87 | 5.2 | 7.0 | 0.00 | 0.00 | 0.00 | 35 | 1027.4 |
| 20260906161813 | 67 | 144 | 5.2 | 7.0 | 0.00 | 0.00 | 0.00 | 36 | 1027.4 |
| 20260906161313 | 67 | 122 | 5.2 | 6.1 | 0.00 | 0.00 | 0.00 | 36 | 1027.4 |
| 20260906160813 | 67 | 140 | 4.3 | 6.1 | 0.00 | 0.00 | 0.00 | 37 | 1027.4 |
| 20260906160313 | 66 | 116 | 6.1 | 7.8 | 0.00 | 0.00 | 0.00 | 37 | 1027.5 |
| 20260906155815 | 66 | 104 | 4.3 | 7.8 | 0.00 | 0.00 | 0.00 | 37 | 1027.5 |
| 20260906155313 | 66 | 106 | 5.2 | 7.8 | 0.00 | 0.00 | 0.00 | 37 | 1027.5 |
| 20260906154813 | 65 | 112 | 4.3 | 7.0 | 0.00 | 0.00 | 0.00 | 38 | 1027.5 |
| 20260906154313 | 65 | 129 | 5.2 | 7.8 | 0.00 | 0.00 | 0.00 | 41 | 1027.5 |
| 20260906153813 | 65 | 132 | 5.2 | 7.8 | 0.00 | 0.00 | 0.00 | 39 | 1027.5 |
| 20260906153313 | 64 | 150 | 6.1 | 7.8 | 0.00 | 0.00 | 0.00 | 39 | 1027.6 |
| 20260906152813 | 63 | 158 | 5.2 | 7.0 | 0.00 | 0.00 | 0.00 | 41 | 1027.6 |
| 20260906152313 | 63 | 115 | 4.3 | 7.8 | 0.00 | 0.00 | 0.00 | 41 | 1027.5 |
| 20260906151813 | 62 | 148 | 4.3 | 7.0 | 0.00 | 0.00 | 0.00 | 42 | 1027.6 |
| 20260906150853 | 61 | 146 | 3.5 | 4.3 | 0.00 | 0.00 | 0.00 | 44 | 1027.9 |
| 20260906150314 | 61 | 172 | 3.5 | 4.3 | 0.00 | 0.00 | 0.00 | 45 | 1027.9 |
| 20260906145813 | 62 | 165 | 5.2 | 7.0 | 0.00 | 0.00 | 0.00 | 44 | 1027.8 |
| 20260906145314 | 61 | 161 | 4.3 | 5.2 | 0.00 | 0.00 | 0.00 | 45 | 1027.9 |
| 20260906144814 | 62 | 151 | 4.3 | 6.1 | 0.00 | 0.00 | 0.00 | 44 | 1027.6 |
| 20260906144314 | 61 | 136 | 4.3 | 6.1 | 0.00 | 0.00 | 0.00 | 45 | 1027.5 |
| 20260906143814 | 60 | 128 | 5.2 | 6.1 | 0.00 | 0.00 | 0.00 | 46 | 1027.6 |
| 20260906143317 | 60 | 136 | 5.2 | 6.1 | 0.00 | 0.00 | 0.00 | 46 | 1027.6 |
| 20260906142813 | 60 | 141 | 4.3 | 7.0 | 0.00 | 0.00 | 0.00 | 47 | 1027.5 |
| 20260906142313 | 60 | 135 | 6.1 | 7.8 | 0.00 | 0.00 | 0.00 | 46 | 1027.5 |
| 20260906141813 | 60 | 133 | 5.2 | 6.1 | 0.00 | 0.00 | 0.00 | 46 | 1027.5 |
| 20260906141314 | 60 | 132 | 4.3 | 6.1 | 0.00 | 0.00 | 0.00 | 46 | 1027.5 |
| 20260906140813 | 59 | 162 | 6.1 | 7.8 | 0.00 | 0.00 | 0.00 | 46 | 1027.6 |
| 20260906140317 | 59 | 172 | 7.0 | 9.6 | 0.00 | 0.00 | 0.00 | 47 | 1027.6 |
| 20260906135814 | 59 | 165 | 6.1 | 8.7 | 0.00 | 0.00 | 0.00 | 47 | 1027.6 |
| 20260906135314 | 58 | 173 | 7.0 | 9.6 | 0.00 | 0.00 | 0.00 | 48 | 1027.6 |
| 20260906134813 | 58 | 173 | 6.1 | 7.0 | 0.00 | 0.00 | 0.00 | 49 | 1027.5 |
| 20260906134313 | 58 | 168 | 5.2 | 6.1 | 0.00 | 0.00 | 0.00 | 50 | 1027.5 |
| 20260906133813 | 58 | 170 | 5.2 | 7.0 | 0.00 | 0.00 | 0.00 | 49 | 1027.5 |
| 20260906133313 | 58 | 171 | 5.2 | 7.0 | 0.00 | 0.00 | 0.00 | 48 | 1027.5 |
| 20260906132813 | 57 | 172 | 5.2 | 6.1 | 0.00 | 0.00 | 0.00 | 48 | 1027.4 |
| 20260906132313 | 57 | 183 | 3.5 | 4.3 | 0.00 | 0.00 | 0.00 | 49 | 1027.4 |
| 20260906131813 | 57 | 193 | 3.5 | 3.5 | 0.00 | 0.00 | 0.00 | 49 | 1027.3 |
| 20260906131313 | 57 | 181 | 2.6 | 3.5 | 0.00 | 0.00 | 0.00 | 49 | 1027.3 |
| 20260906130814 | 56 | 178 | 2.6 | 2.6 | 0.00 | 0.00 | 0.00 | 50 | 1027.3 |
| 20260906130313 | 57 | 175 | 2.6 | 3.5 | 0.00 | 0.00 | 0.00 | 50 | 1027.4 |
| 20260906125814 | 57 | 183 | 2.6 | 3.5 | 0.00 | 0.00 | 0.00 | 50 | 1027.3 |
| 20260906125313 | 57 | 155 | 2.6 | 3.5 | 0.00 | 0.00 | 0.00 | 50 | 1027.3 |
| 20260906124814 | 57 | 173 | 1.7 | 2.6 | 0.00 | 0.00 | 0.00 | 49 | 1027.3 |
| 20260906124313 | 58 | 159 | 1.7 | 2.6 | 0.00 | 0.00 | 0.00 | 50 | 1027.3 |
| 20260906123813 | 58 | 179 | 1.7 | 2.6 | 0.00 | 0.00 | 0.00 | 49 | 1027.1 |
| 20260906123313 | 58 | 188 | 2.6 | 4.3 | 0.00 | 0.00 | 0.00 | 48 | 1027.0 |
| 20260906122813 | 58 | 185 | 3.5 | 3.5 | 0.00 | 0.00 | 0.00 | 48 | 1027.0 |
| 20260906122313 | 58 | 188 | 3.5 | 3.5 | 0.00 | 0.00 | 0.00 | 47 | 1027.0 |
| 20260906121813 | 58 | 182 | 2.6 | 3.5 | 0.00 | 0.00 | 0.00 | 47 | 1027.0 |
| 20260906121313 | 58 | 178 | 1.7 | 3.5 | 0.00 | 0.00 | 0.00 | 48 | 1027.0 |
| 20260906120813 | 58 | 182 | 0.9 | 1.7 | 0.00 | 0.00 | 0.00 | 47 | 1027.0 |
| 20260906120313 | 58 | 197 | 1.7 | 2.6 | 0.00 | 0.00 | 0.00 | 47 | 1027.0 |
| 20260906115814 | 58 | 194 | 1.7 | 2.6 | 0.00 | 0.00 | 0.00 | 47 | 1027.1 |
| 20260906115313 | 58 | 176 | 3.5 | 4.3 | 0.00 | 0.00 | 0.00 | 47 | 1027.0 |
| 20260906114814 | 58 | 157 | 1.7 | 2.6 | 0.00 | 0.00 | 0.00 | 47 | 1027.1 |
| 20260906114314 | 58 | 209 | 1.7 | 2.6 | 0.00 | 0.00 | 0.00 | 46 | 1027.1 |
| 20260906113813 | 58 | 195 | 2.6 | 3.5 | 0.00 | 0.00 | 0.00 | 47 | 1027.1 |
| 20260906113313 | 59 | 183 | 3.5 | 4.3 | 0.00 | 0.00 | 0.00 | 46 | 1027.1 |
| 20260906112813 | 59 | 182 | 3.5 | 4.3 | 0.00 | 0.00 | 0.00 | 46 | 1027.1 |
| 20260906112313 | 58 | 185 | 2.6 | 3.5 | 0.00 | 0.00 | 0.00 | 46 | 1027.1 |
| 20260906111813 | 58 | 188 | 2.6 | 3.5 | 0.00 | 0.00 | 0.00 | 47 | 1027.1 |
| 20260906111313 | 58 | 197 | 3.5 | 4.3 | 0.00 | 0.00 | 0.00 | 47 | 1027.1 |
| 20260906110813 | 58 | 184 | 3.5 | 4.3 | 0.00 | 0.00 | 0.00 | 47 | 1027.1 |
| 20260906110315 | 58 | 201 | 3.5 | 3.5 | 0.00 | 0.00 | 0.00 | 47 | 1027.1 |
| 20260906105813 | 59 | 193 | 2.6 | 3.5 | 0.00 | 0.00 | 0.00 | 47 | 1027.0 |
| 20260906105313 | 59 | 191 | 2.6 | 3.5 | 0.00 | 0.00 | 0.00 | 46 | 1027.0 |
| 20260906104813 | 59 | 192 | 2.6 | 3.5 | 0.00 | 0.00 | 0.00 | 45 | 1027.0 |
| 20260906104313 | 59 | 183 | 3.5 | 3.5 | 0.00 | 0.00 | 0.00 | 45 | 1026.9 |
| 20260906103813 | 60 | 191 | 1.7 | 2.6 | 0.00 | 0.00 | 0.00 | 45 | 1026.9 |
| 20260906103313 | 60 | 219 | 1.7 | 2.6 | 0.00 | 0.00 | 0.00 | 45 | 1026.9 |
| 20260906102813 | 60 | 185 | 2.6 | 3.5 | 0.00 | 0.00 | 0.00 | 45 | 1026.8 |
| 20260906102313 | 60 | 190 | 1.7 | 3.5 | 0.00 | 0.00 | 0.00 | 45 | 1027.0 |
| 20260906101813 | 60 | 189 | 1.7 | 2.6 | 0.00 | 0.00 | 0.00 | 45 | 1027.1 |
| 20260906101313 | 60 | 192 | 1.7 | 2.6 | 0.00 | 0.00 | 0.00 | 44 | 1027.1 |
| 20260906100813 | 60 | 199 | 2.6 | 3.5 | 0.00 | 0.00 | 0.00 | 44 | 1027.0 |
| 20260906100313 | 60 | 194 | 2.6 | 3.5 | 0.00 | 0.00 | 0.00 | 44 | 1027.0 |
| 20260906095813 | 60 | 211 | 2.6 | 3.5 | 0.00 | 0.00 | 0.00 | 43 | 1026.9 |
| 20260906095313 | 60 | 200 | 2.6 | 2.6 | 0.00 | 0.00 | 0.00 | 44 | 1027.0 |
| 20260906094813 | 60 | 195 | 3.5 | 3.5 | 0.00 | 0.00 | 0.00 | 44 | 1026.9 |
| 20260906094313 | 60 | 191 | 3.5 | 4.3 | 0.00 | 0.00 | 0.00 | 44 | 1026.9 |
| 20260906093814 | 60 | 200 | 3.5 | 4.3 | 0.00 | 0.00 | 0.00 | 44 | 1026.9 |
| 20260906093313 | 60 | 199 | 3.5 | 4.3 | 0.00 | 0.00 | 0.00 | 44 | 1026.9 |
| 20260906092814 | 60 | 182 | 2.6 | 2.6 | 0.00 | 0.00 | 0.00 | 44 | 1026.8 |
| 20260906092312 | 61 | 179 | 1.7 | 2.6 | 0.00 | 0.00 | 0.00 | 43 | 1026.9 |
| 20260906091813 | 61 | 193 | 2.6 | 3.5 | 0.00 | 0.00 | 0.00 | 43 | 1026.8 |
| 20260906091313 | 61 | 179 | 2.6 | 4.3 | 0.00 | 0.00 | 0.00 | 43 | 1026.8 |
| 20260906090813 | 61 | 199 | 2.6 | 4.3 | 0.00 | 0.00 | 0.00 | 42 | 1026.8 |
| 20260906090313 | 61 | 199 | 3.5 | 4.3 | 0.00 | 0.00 | 0.00 | 43 | 1026.8 |
| 20260906085813 | 61 | 198 | 3.5 | 4.3 | 0.00 | 0.00 | 0.00 | 43 | 1026.8 |
| 20260906085313 | 61 | 214 | 3.5 | 5.2 | 0.00 | 0.00 | 0.00 | 43 | 1026.6 |
| 20260906084813 | 61 | 194 | 4.3 | 5.2 | 0.00 | 0.00 | 0.00 | 42 | 1026.6 |
| 20260906084313 | 61 | 192 | 3.5 | 5.2 | 0.00 | 0.00 | 0.00 | 42 | 1026.6 |
| 20260906083813 | 61 | 194 | 3.5 | 5.2 | 0.00 | 0.00 | 0.00 | 42 | 1026.6 |
| 20260906083313 | 62 | 200 | 4.3 | 6.1 | 0.00 | 0.00 | 0.00 | 41 | 1026.6 |
| 20260906082813 | 62 | 191 | 4.3 | 6.1 | 0.00 | 0.00 | 0.00 | 41 | 1026.6 |
| 20260906082313 | 62 | 199 | 5.2 | 6.1 | 0.00 | 0.00 | 0.00 | 40 | 1026.6 |
| 20260906081813 | 63 | 184 | 4.3 | 5.2 | 0.00 | 0.00 | 0.00 | 40 | 1026.5 |
| 20260906081313 | 63 | 189 | 4.3 | 6.1 | 0.00 | 0.00 | 0.00 | 40 | 1026.6 |
| 20260906080813 | 63 | 190 | 4.3 | 5.2 | 0.00 | 0.00 | 0.00 | 39 | 1026.6 |
| 20260906080313 | 64 | 193 | 3.5 | 4.3 | 0.00 | 0.00 | 0.00 | 38 | 1026.8 |
| 20260906075813 | 64 | 185 | 2.6 | 3.5 | 0.00 | 0.00 | 0.00 | 37 | 1026.8 |
| 20260906075313 | 64 | 203 | 3.5 | 3.5 | 0.00 | 0.00 | 0.00 | 37 | 1026.8 |
| 20260906074813 | 64 | 205 | 2.6 | 3.5 | 0.00 | 0.00 | 0.00 | 37 | 1026.8 |
| 20260906074313 | 64 | 201 | 3.5 | 3.5 | 0.00 | 0.00 | 0.00 | 37 | 1026.8 |
| 20260906073813 | 64 | 202 | 2.6 | 4.3 | 0.00 | 0.00 | 0.00 | 37 | 1026.8 |
| 20260906073313 | 64 | 209 | 3.5 | 4.3 | 0.00 | 0.00 | 0.00 | 37 | 1026.8 |
| 20260906072813 | 64 | 205 | 3.5 | 4.3 | 0.00 | 0.00 | 0.00 | 38 | 1026.8 |
| 20260906072314 | 64 | 204 | 3.5 | 5.2 | 0.00 | 0.00 | 0.00 | 37 | 1026.6 |
| 20260906071813 | 64 | 197 | 3.5 | 5.2 | 0.00 | 0.00 | 0.00 | 37 | 1026.8 |
| 20260906071313 | 64 | 210 | 3.5 | 4.3 | 0.00 | 0.00 | 0.00 | 37 | 1026.6 |
| 20260906070813 | 64 | 210 | 3.5 | 4.3 | 0.00 | 0.00 | 0.00 | 38 | 1026.6 |
| 20260906070313 | 64 | 207 | 3.5 | 4.3 | 0.00 | 0.00 | 0.00 | 38 | 1026.6 |
| 20260906065813 | 64 | 209 | 3.5 | 3.5 | 0.00 | 0.00 | 0.00 | 39 | 1026.8 |
| 20260906065313 | 63 | 226 | 2.6 | 4.3 | 0.00 | 0.00 | 0.00 | 39 | 1026.8 |
| 20260906064813 | 64 | 200 | 4.3 | 5.2 | 0.00 | 0.00 | 0.00 | 39 | 1026.8 |
| 20260906064313 | 63 | 208 | 3.5 | 4.3 | 0.00 | 0.00 | 0.00 | 39 | 1026.8 |
| 20260906063813 | 64 | 195 | 3.5 | 5.2 | 0.00 | 0.00 | 0.00 | 39 | 1026.8 |
| 20260906063313 | 64 | 187 | 4.3 | 5.2 | 0.00 | 0.00 | 0.00 | 39 | 1026.8 |
| 20260906062813 | 65 | 180 | 2.6 | 3.5 | 0.00 | 0.00 | 0.00 | 37 | 1026.8 |
| 20260906062313 | 65 | 174 | 0.9 | 2.6 | 0.00 | 0.00 | 0.00 | 35 | 1026.8 |
| 20260906061814 | 66 | 159 | 2.6 | 3.5 | 0.00 | 0.00 | 0.00 | 36 | 1026.8 |
| 20260906061313 | 66 | 199 | 2.6 | 3.5 | 0.00 | 0.00 | 0.00 | 35 | 1026.6 |
| 20260906060813 | 66 | 198 | 0.9 | 1.7 | 0.00 | 0.00 | 0.00 | 34 | 1026.6 |
| 20260906060313 | 66 | 226 | 2.6 | 3.5 | 0.00 | 0.00 | 0.00 | 34 | 1026.6 |
| 20260906055813 | 66 | 233 | 1.7 | 2.6 | 0.00 | 0.00 | 0.00 | 34 | 1026.6 |
| 20260906055313 | 66 | 212 | 2.6 | 2.6 | 0.00 | 0.00 | 0.00 | 34 | 1026.6 |
| 20260906054813 | 67 | 218 | 2.6 | 3.5 | 0.00 | 0.00 | 0.00 | 33 | 1026.5 |
| 20260906054313 | 68 | 204 | 2.6 | 4.3 | 0.00 | 0.00 | 0.00 | 31 | 1026.5 |
| 20260906053813 | 67 | 225 | 1.7 | 2.6 | 0.00 | 0.00 | 0.00 | 30 | 1026.6 |
| 20260906053313 | 67 | 221 | 1.7 | 3.5 | 0.00 | 0.00 | 0.00 | 31 | 1026.5 |
| 20260906052813 | 66 | 210 | 0.9 | 1.7 | 0.00 | 0.00 | 0.00 | 33 | 1026.6 |
| 20260906052313 | 67 | 214 | 0.0 | 0.9 | 0.00 | 0.00 | 0.00 | 32 | 1026.8 |
| 20260906051813 | 67 | 60 | 0.0 | 1.7 | 0.00 | 0.00 | 0.00 | 31 | 1026.6 |
| 20260906051313 | 67 | 238 | 1.7 | 2.6 | 0.00 | 0.00 | 0.00 | 31 | 1026.5 |
| 20260906050815 | 68 | 146 | 0.0 | 0.9 | 0.00 | 0.00 | 0.00 | 32 | 1026.6 |
| 20260906050313 | 68 | 240 | 1.7 | 2.6 | 0.00 | 0.00 | 0.00 | 31 | 1026.6 |
| 20260906045813 | 68 | 250 | 2.6 | 3.5 | 0.00 | 0.00 | 0.00 | 32 | 1026.6 |
| 20260906045313 | 67 | 194 | 0.9 | 1.7 | 0.00 | 0.00 | 0.00 | 32 | 1026.5 |
| 20260906044813 | 68 | 190 | 0.9 | 1.7 | 0.00 | 0.00 | 0.00 | 32 | 1026.6 |
| 20260906044313 | 68 | 275 | 0.0 | 0.9 | 0.00 | 0.00 | 0.00 | 33 | 1026.5 |
| 20260906043813 | 68 | 114 | 1.7 | 1.7 | 0.00 | 0.00 | 0.00 | 32 | 1026.5 |
| 20260906043314 | 67 | 216 | 1.7 | 2.6 | 0.00 | 0.00 | 0.00 | 32 | 1026.6 |
| 20260906042813 | 67 | 231 | 0.9 | 1.7 | 0.00 | 0.00 | 0.00 | 33 | 1026.5 |
| 20260906042313 | 67 | 174 | 0.9 | 1.7 | 0.00 | 0.00 | 0.00 | 33 | 1026.5 |
| 20260906041813 | 67 | 212 | 0.9 | 3.5 | 0.00 | 0.00 | 0.00 | 31 | 1026.5 |
| 20260906041313 | 68 | 189 | 0.9 | 1.7 | 0.00 | 0.00 | 0.00 | 32 | 1026.5 |
| 20260906040814 | 69 | 25 | 0.9 | 2.6 | 0.00 | 0.00 | 0.00 | 30 | 1026.4 |
| 20260906040313 | 69 | 358 | 2.6 | 4.3 | 0.00 | 0.00 | 0.00 | 29 | 1026.4 |
| 20260906035813 | 69 | 103 | 1.7 | 3.5 | 0.00 | 0.00 | 0.00 | 29 | 1026.3 |
| 20260906035313 | 69 | 11 | 2.6 | 3.5 | 0.00 | 0.00 | 0.00 | 29 | 1026.3 |
| 20260906034814 | 69 | 359 | 2.6 | 4.3 | 0.00 | 0.00 | 0.00 | 30 | 1026.1 |
| 20260906034313 | 69 | 346 | 2.6 | 4.3 | 0.00 | 0.00 | 0.00 | 30 | 1026.1 |
| 20260906033813 | 69 | 360 | 3.5 | 5.2 | 0.00 | 0.00 | 0.00 | 30 | 1026.0 |
| 20260906033315 | 69 | 360 | 3.5 | 7.0 | 0.00 | 0.00 | 0.00 | 30 | 1026.1 |
| 20260906032813 | 69 | 356 | 3.5 | 5.2 | 0.00 | 0.00 | 0.00 | 30 | 1026.1 |
| 20260906032313 | 69 | 354 | 5.2 | 7.0 | 0.00 | 0.00 | 0.00 | 30 | 1026.0 |
| 20260906031813 | 69 | 355 | 5.2 | 6.1 | 0.00 | 0.00 | 0.00 | 30 | 1026.0 |
| 20260906031313 | 69 | 345 | 2.6 | 4.3 | 0.00 | 0.00 | 0.00 | 30 | 1026.0 |
| 20260906030813 | 69 | 346 | 3.5 | 6.1 | 0.00 | 0.00 | 0.00 | 30 | 1025.9 |
| 20260906030313 | 69 | 336 | 3.5 | 5.2 | 0.00 | 0.00 | 0.00 | 30 | 1025.9 |
| 20260906025813 | 70 | 338 | 3.5 | 6.1 | 0.00 | 0.00 | 0.00 | 30 | 1025.8 |
| 20260906025313 | 70 | 350 | 3.5 | 5.2 | 0.00 | 0.00 | 0.00 | 30 | 1025.8 |
| 20260906024813 | 70 | 302 | 2.6 | 6.1 | 0.00 | 0.00 | 0.00 | 30 | 1025.8 |
| 20260906024314 | 70 | 352 | 1.7 | 2.6 | 0.00 | 0.00 | 0.00 | 30 | 1025.8 |
| 20260906023813 | 71 | 355 | 2.6 | 5.2 | 0.00 | 0.00 | 0.00 | 29 | 1025.6 |
| 20260906023313 | 71 | 314 | 1.7 | 3.5 | 0.00 | 0.00 | 0.00 | 29 | 1025.6 |
| 20260906022813 | 71 | 304 | 3.5 | 7.8 | 0.00 | 0.00 | 0.00 | 29 | 1025.5 |
| 20260906022313 | 71 | 331 | 4.3 | 7.0 | 0.00 | 0.00 | 0.00 | 29 | 1025.4 |
| 20260906021814 | 71 | 274 | 3.5 | 7.8 | 0.00 | 0.00 | 0.00 | 29 | 1025.4 |
| 20260906021313 | 71 | 285 | 2.6 | 5.2 | 0.00 | 0.00 | 0.00 | 29 | 1025.3 |
| 20260906020813 | 71 | 278 | 3.5 | 6.1 | 0.00 | 0.00 | 0.00 | 29 | 1025.3 |
| 20260906020314 | 71 | 307 | 3.5 | 7.0 | 0.00 | 0.00 | 0.00 | 30 | 1025.1 |
| 20260906015813 | 71 | 306 | 1.7 | 4.3 | 0.00 | 0.00 | 0.00 | 30 | 1025.1 |
| 20260906015313 | 71 | 288 | 2.6 | 4.3 | 0.00 | 0.00 | 0.00 | 30 | 1025.1 |
| 20260906014814 | 71 | 315 | 5.2 | 7.8 | 0.00 | 0.00 | 0.00 | 30 | 1025.1 |
| 20260906014313 | 72 | 347 | 1.7 | 3.5 | 0.00 | 0.00 | 0.00 | 30 | 1025.1 |
| 20260906013813 | 72 | 338 | 2.6 | 6.1 | 0.00 | 0.00 | 0.00 | 30 | 1025.1 |
| 20260906013313 | 72 | 357 | 0.9 | 3.5 | 0.00 | 0.00 | 0.00 | 30 | 1025.3 |
| 20260906012813 | 73 | 331 | 1.7 | 3.5 | 0.00 | 0.00 | 0.00 | 30 | 1025.3 |
| 20260906012313 | 73 | 329 | 4.3 | 7.0 | 0.00 | 0.00 | 0.00 | 29 | 1025.1 |
| 20260906011813 | 73 | 322 | 2.6 | 5.2 | 0.00 | 0.00 | 0.00 | 29 | 1025.1 |
| 20260906011314 | 73 | 341 | 5.2 | 7.0 | 0.00 | 0.00 | 0.00 | 29 | 1025.1 |
| 20260906010813 | 73 | 324 | 3.5 | 6.1 | 0.00 | 0.00 | 0.00 | 29 | 1025.3 |
| 20260906010313 | 73 | 296 | 2.6 | 3.5 | 0.00 | 0.00 | 0.00 | 29 | 1025.3 |
| 20260906005813 | 73 | 308 | 1.7 | 2.6 | 0.00 | 0.00 | 0.00 | 30 | 1025.4 |
| 20260906005313 | 73 | 313 | 1.7 | 3.5 | 0.00 | 0.00 | 0.00 | 29 | 1025.4 |
| 20260906004813 | 73 | 321 | 2.6 | 4.3 | 0.00 | 0.00 | 0.00 | 29 | 1025.3 |
| 20260906004313 | 74 | 354 | 4.3 | 7.0 | 0.00 | 0.00 | 0.00 | 29 | 1025.1 |
| 20260906003813 | 74 | 331 | 4.3 | 5.2 | 0.00 | 0.00 | 0.00 | 29 | 1025.1 |
| 20260906003313 | 74 | 343 | 5.2 | 7.8 | 0.00 | 0.00 | 0.00 | 28 | 1025.0 |
| 20260906002813 | 74 | 334 | 6.1 | 8.7 | 0.00 | 0.00 | 0.00 | 28 | 1025.0 |
| 20260906002313 | 74 | 354 | 7.0 | 8.7 | 0.00 | 0.00 | 0.00 | 28 | 1025.0 |
| 20260906001814 | 75 | 345 | 7.0 | 12.2 | 0.00 | 0.00 | 0.00 | 28 | 1025.0 |
| 20260906001313 | 75 | 9 | 3.5 | 6.1 | 0.00 | 0.00 | 0.00 | 28 | 1025.0 |
| 20260906000813 | 75 | 349 | 5.2 | 8.7 | 0.00 | 0.00 | 0.00 | 28 | 1025.0 |
| 20260906000313 | 75 | 29 | 2.6 | 5.2 | 0.00 | 0.00 | 0.00 | 28 | 1025.1 |
| 20260905235814 | 75 | 359 | 6.1 | 8.7 | 0.00 | 0.00 | 0.00 | 27 | 1025.0 |
| 20260905235313 | 76 | 327 | 5.2 | 7.8 | 0.00 | 0.00 | 0.00 | 28 | 1025.1 |
| 20260905234813 | 76 | 356 | 7.0 | 10.4 | 0.00 | 0.00 | 0.00 | 27 | 1025.1 |
| 20260905234313 | 76 | 343 | 6.1 | 10.4 | 0.00 | 0.00 | 0.00 | 26 | 1025.0 |
| 20260905233814 | 76 | 346 | 3.5 | 7.8 | 0.00 | 0.00 | 0.00 | 27 | 1025.0 |
| 20260905233313 | 76 | 326 | 6.1 | 7.8 | 0.00 | 0.00 | 0.00 | 27 | 1025.1 |
| 20260905232813 | 76 | 346 | 7.8 | 10.4 | 0.00 | 0.00 | 0.00 | 26 | 1025.1 |
| 20260905232313 | 76 | 324 | 4.3 | 7.0 | 0.00 | 0.00 | 0.00 | 27 | 1025.3 |
| 20260905231813 | 76 | 350 | 7.8 | 9.6 | 0.00 | 0.00 | 0.00 | 27 | 1025.1 |
| 20260905231313 | 76 | 339 | 7.0 | 9.6 | 0.00 | 0.00 | 0.00 | 27 | 1025.1 |
| 20260905230813 | 75 | 346 | 6.1 | 9.6 | 0.00 | 0.00 | 0.00 | 27 | 1024.9 |
| 20260905230314 | 75 | 330 | 7.8 | 10.4 | 0.00 | 0.00 | 0.00 | 28 | 1024.9 |
| 20260905225813 | 76 | 332 | 8.7 | 12.2 | 0.00 | 0.00 | 0.00 | 28 | 1025.0 |